TimeEST,TemperatureF,Dew PointF,Humidity,Sea Level PressureIn,VisibilityMPH,Wind Direction,Wind SpeedMPH,Gust SpeedMPH,PrecipitationIn,Events,Conditions,WindDirDegrees,DateUTC
12:53 AM,17.1,14.0,88,29.78,6.0,Calm,Calm,-,N/A,,Clear,0,2013-02-14 05:53:00
1:53 AM,17.1,12.9,84,29.78,5.0,WNW,3.5,-,N/A,,Clear,300,2013-02-14 06:53:00
2:53 AM,16.0,12.9,88,29.76,9.0,Calm,Calm,-,N/A,,Clear,0,2013-02-14 07:53:00
3:53 AM,15.1,12.0,88,29.82,9.0,Calm,Calm,-,N/A,,Scattered Clouds,0,2013-02-14 08:53:00
4:53 AM,15.1,10.9,84,29.81,8.0,WNW,4.6,-,N/A,,Mostly Cloudy,300,2013-02-14 09:53:00
5:53 AM,14.0,10.9,88,29.82,6.0,Calm,Calm,-,N/A,,Clear,0,2013-02-14 10:53:00
7:53 AM,16.0,12.9,88,29.85,8.0,WNW,3.5,-,N/A,,Clear,290,2013-02-14 12:53:00
8:53 AM,21.9,18.0,85,29.85,6.0,Calm,Calm,-,N/A,,Clear,0,2013-02-14 13:53:00
9:53 AM,28.9,19.9,69,29.85,10.0,NNW,3.5,-,N/A,,Clear,330,2013-02-14 14:53:00
10:53 AM,32.0,18.0,56,29.86,10.0,NW,5.8,-,N/A,,Clear,310,2013-02-14 15:53:00
11:53 AM,34.0,15.1,46,29.86,10.0,WNW,6.9,-,N/A,,Partly Cloudy,290,2013-02-14 16:53:00
12:53 PM,35.1,14.0,42,29.86,10.0,West,9.2,-,N/A,,Mostly Cloudy,280,2013-02-14 17:53:00
1:53 PM,34.0,17.1,50,29.87,10.0,NW,9.2,-,N/A,,Mostly Cloudy,320,2013-02-14 18:53:00
2:53 PM,35.1,18.0,50,29.89,10.0,NW,8.1,-,N/A,,Overcast,310,2013-02-14 19:53:00
3:53 PM,36.0,18.0,48,29.90,10.0,WNW,5.8,-,N/A,,Overcast,290,2013-02-14 20:53:00
4:53 PM,34.0,19.0,54,29.93,10.0,WNW,4.6,-,N/A,,Overcast,300,2013-02-14 21:53:00
5:53 PM,30.9,19.0,61,29.94,10.0,Calm,Calm,-,N/A,,Overcast,0,2013-02-14 22:53:00
6:53 PM,28.9,19.0,67,29.96,10.0,Calm,Calm,-,N/A,,Clear,0,2013-02-14 23:53:00
7:53 PM,27.0,19.0,72,29.99,10.0,Calm,Calm,-,N/A,,Partly Cloudy,0,2013-02-15 00:53:00
8:53 PM,26.1,18.0,71,29.99,10.0,Calm,Calm,-,N/A,,Clear,0,2013-02-15 01:53:00
9:53 PM,24.1,18.0,77,30.00,10.0,Calm,Calm,-,N/A,,Clear,0,2013-02-15 02:53:00
10:53 PM,23.0,17.1,78,30.00,10.0,Calm,Calm,-,N/A,,Partly Cloudy,0,2013-02-15 03:53:00
11:53 PM,19.9,17.1,89,30.00,7.0,Calm,Calm,-,N/A,,Clear,0,2013-02-15 04:53:00